FW8074 Weather Reports


Display with metric or nautical units.
time (UTC)temp
F
wind
direction
speed
MPH
gust
MPH
rain 1hr
in
rain 24hr
in
rain mn
in
humidity
%
barometer
mb
20260906150114 83 142 0.0 6.0 0.00 0.00 0.00 79 1009.6
20260906144605 82 0 0.0 6.0 0.00 0.00 0.00 81 1009.4
20260906143104 81 0 0.0 6.0 0.00 0.00 0.00 82 1009.6
20260906141603 80 161 2.0 8.0 0.00 0.00 0.00 83 1009.6
20260906140111 80 109 2.0 7.0 0.00 0.00 0.00 85 1009.6
20260906134604 79 89 1.0 5.0 0.00 0.00 0.00 86 1009.5
20260906133136 78 123 1.0 8.0 0.00 0.00 0.00 88 1009.4
20260906131602 76 111 2.0 6.0 0.00 0.00 0.00 89 1009.4
20260906130119 75 84 2.0 5.0 0.00 0.00 0.00 92 1009.4
20260906124604 74 334 0.0 4.0 0.00 0.00 0.00 94 1009.2
20260906123108 72 0 1.0 4.0 0.00 0.00 0.00 97 1009.2
20260906121607 71 0 0.0 4.0 0.00 0.00 0.00 98 1008.9
20260906120106 70 94 0.0 2.0 0.00 0.00 0.00 98 1008.7
20260906114601 69 0 0.0 2.0 0.00 0.00 0.00 98 1008.7
20260906113108 69 0 0.0 0.0 0.00 0.00 0.00 98 1008.7
20260906111620 69 0 0.0 1.0 0.00 0.00 0.00 98 1008.6
20260906110105 69 0 0.0 0.0 0.00 0.00 0.00 98 1008.2
20260906104605 69 0 0.0 0.0 0.00 0.00 0.00 98 1007.7
20260906103105 69 0 0.0 0.0 0.00 0.00 0.00 98 1007.5
20260906101605 69 0 0.0 0.0 0.00 0.00 0.00 98 1007.6
20260906100104 69 0 0.0 1.0 0.00 0.00 0.00 97 1007.6
20260906094601 69 0 0.0 0.0 0.00 0.00 0.00 98 1007.6
20260906093108 69 0 0.0 0.0 0.00 0.00 0.00 98 1007.5
20260906091602 69 0 0.0 0.0 0.00 0.00 0.00 97 1007.3
20260906090104 69 0 0.0 0.0 0.00 0.00 0.00 97 1007.3
20260906084605 70 0 0.0 0.0 0.00 0.00 0.00 97 1007.3
20260906083106 70 0 0.0 0.0 0.00 0.00 0.00 97 1007.2
20260906081603 70 0 0.0 0.0 0.00 0.00 0.00 97 1007.1
20260906080104 70 0 0.0 1.0 0.00 0.00 0.00 97 1007.1
20260906074601 70 0 0.0 0.0 0.00 0.00 0.00 97 1007.2
20260906073104 70 0 0.0 1.0 0.00 0.00 0.00 97 1007.2
20260906071604 70 355 0.0 1.0 0.00 0.00 0.00 96 1007.4
20260906070105 70 0 0.0 1.0 0.00 0.00 0.00 96 1007.4
20260906064606 71 0 0.0 1.0 0.00 0.00 0.00 96 1007.5
20260906063107 71 0 0.0 0.0 0.00 0.00 0.00 96 1007.8
20260906061608 71 0 0.0 0.0 0.00 0.00 0.00 95 1007.6
20260906060105 71 0 0.0 1.0 0.00 0.00 0.00 95 1007.8
20260906054606 71 0 0.0 0.0 0.00 0.00 0.00 95 1007.8
20260906053105 72 0 0.0 1.0 0.00 0.00 0.00 94 1008.1
20260906051614 72 0 0.0 0.0 0.00 0.00 0.00 93 1008.4
20260906050107 72 0 0.0 1.0 0.00 0.00 0.00 93 1008.6
20260906044610 72 0 0.0 1.0 0.00 0.00 0.00 92 1008.5
20260906043104 72 0 0.0 1.0 0.00 0.00 0.00 91 1008.6
20260906041604 73 0 0.0 0.0 0.00 0.00 0.00 90 1008.7
20260906040139 73 0 0.0 0.0 0.00 0.00 0.00 90 1008.7
20260906034620 73 0 0.0 0.0 0.00 0.00 0.00 89 1008.7
20260906033108 74 0 0.0 0.0 0.00 0.00 0.00 88 1008.6
20260906031600 74 0 0.0 0.0 0.00 0.00 0.00 87 1008.6
20260906030104 75 0 0.0 0.0 0.00 0.00 0.00 86 1008.5
20260906024614 75 0 0.0 0.0 0.00 0.00 0.00 86 1008.4
20260906023106 75 0 0.0 0.0 0.00 0.00 0.00 86 1008.3
20260906021602 76 0 0.0 0.0 0.00 0.00 0.00 85 1008.0
20260906020106 76 0 0.0 0.0 0.00 0.00 0.00 85 1008.0
20260906014605 77 0 0.0 0.0 0.00 0.00 0.00 84 1008.2
20260906013119 77 0 0.0 0.0 0.00 0.00 0.00 82 1007.9
20260906011605 78 0 0.0 0.0 0.00 0.00 0.00 81 1007.9
20260906010105 78 0 0.0 2.0 0.00 0.00 0.00 80 1007.9
20260906004600 79 0 0.0 0.0 0.00 0.00 0.00 81 1008.0
20260906003104 79 0 0.0 2.0 0.00 0.00 0.00 80 1007.7
20260906001609 79 266 3.0 6.0 0.00 0.00 0.00 79 1007.8
20260906000104 79 0 0.0 0.0 0.00 0.00 0.00 80 1008.0
20260905234603 79 0 0.0 0.0 0.00 0.00 0.00 78 1008.0
20260905233104 80 0 0.0 0.0 0.00 0.00 0.00 78 1007.9
20260905231611 81 0 0.0 0.0 0.00 0.00 0.00 77 1007.9
20260905230108 81 0 0.0 0.0 0.00 0.00 0.00 76 1007.8
20260905224619 82 0 0.0 0.0 0.00 0.00 0.00 74 1007.8
20260905223118 82 0 1.0 3.0 0.00 0.00 0.00 70 1007.3
20260905221605 83 0 0.0 0.0 0.00 0.00 0.00 71 1006.3
20260905220105 84 0 0.0 4.0 0.00 0.00 0.00 68 1006.0
20260905214608 85 35 0.0 4.0 0.00 0.00 0.00 70 1006.5
20260905213105 86 0 0.0 2.0 0.00 0.00 0.00 65 1007.1
20260905211602 87 0 4.0 11.0 0.00 0.00 0.00 63 1007.3
20260905210107 89 79 1.0 9.0 0.00 0.00 0.00 62 1007.2
20260905204609 90 243 3.0 24.0 0.00 0.00 0.00 59 1006.2
20260905203102 95 0 0.0 0.0 0.00 0.00 0.00 60 1006.2
20260905201612 96 0 0.0 0.0 0.00 0.00 0.00 55 1006.3
20260905200106 95 0 0.0 0.0 0.00 0.00 0.00 58 1005.9
20260905194604 96 0 0.0 0.0 0.00 0.00 0.00 55 1006.2
20260905193104 98 0 0.0 0.0 0.00 0.00 0.00 54 1006.5
20260905191609 98 0 0.0 0.0 0.00 0.00 0.00 52 1006.5
20260905190105 99 0 0.0 0.0 0.00 0.00 0.00 53 1006.6
20260905184612 99 0 0.0 0.0 0.00 0.00 0.00 54 1006.9
20260905183105 98 0 0.0 0.0 0.00 0.00 0.00 54 1007.1
20260905181604 97 0 0.0 0.0 0.00 0.00 0.00 57 1007.3
20260905180108 97 0 0.0 0.0 0.00 0.00 0.00 58 1007.7
20260905174606 96 0 0.0 0.0 0.00 0.00 0.00 58 1008.1
20260905173132 96 0 0.0 0.0 0.00 0.00 0.00 61 1008.2
20260905171604 94 0 0.0 0.0 0.00 0.00 0.00 63 1008.5
20260905170115 94 0 0.0 0.0 0.00 0.00 0.00 62 1008.8
20260905164611 94 0 0.0 0.0 0.00 0.00 0.00 61 1009.0
20260905163124 94 0 0.0 0.0 0.00 0.00 0.00 63 1009.1
20260905161615 93 0 0.0 0.0 0.00 0.00 0.00 66 1009.4
20260905160104 92 0 0.0 0.0 0.00 0.00 0.00 66 1009.6
20260905154616 91 0 0.0 0.0 0.00 0.00 0.00 69 1009.6
20260905153105 91 0 0.0 0.0 0.00 0.00 0.00 70 1009.9
20260905151602 90 0 0.0 0.0 0.00 0.00 0.00 73 1009.9